Madison, SD

4:38 PM CST on November 16, 2019 (GMT -0600)
Madison Municipal

Weather History for KMDS - September, 2019

Change the Weather History Date:

Saturday, September 7, 2019

  Actual Average Record
Temperature  
Mean Temperature 60 °F -  
Max Temperature 66 °F 80 °F 87 °F (2013)
Min Temperature 55 °F 54 °F 44 °F (2012)
Degree Days  
Heating Degree Days 4    
Growing Degree Days 10 (Base 50)    
Moisture  
Dew Point 59 °F    
Average Humidity 100    
Maximum Humidity 100    
Minimum Humidity 100    
Precipitation  
Precipitation 0.04 in - - ()
Sea Level Pressure  
Sea Level Pressure 30.08 in    
Wind  
Wind Speed 8 mph ()    
Max Wind Speed 20 mph    
Max Gust Speed 28 mph    
Visibility 10.0 miles    
Events Rain    
Averages and records for this station are not official NWS values.
T = Trace of Precipitation, MM = Missing Value Source: Averaged Metar Reports

Daily Weather History Graph

Daily Weather History Graph

Search for Another Location

Airport or City:

Astronomy

Sep. 07, 2019 Rise Set
Actual Time 6:58 AM CDT 7:53 PM CDT
Civil Twilight 6:28 AM CDT 8:23 PM CDT
Nautical Twilight 5:53 AM CDT 8:58 PM CDT
Astronomical Twilight 5:17 AM CDT 9:34 PM CDT
Moon 4:20 PM CDT (9/7) 12:41 AM CDT (9/7)
Length of Visible Light 13h 54m
Length of Day
12h 55m
Waxing Gibbous, 66% of the Moon is Illuminated
Sep 7
Waxing Gibbous
Sep 13
Full
Sep 21
Last Quarter
Sep 28
New
Oct 5
First Quarter

Hourly Weather History & Observations

Time (CDT) Temp. Dew Point Humidity Pressure Visibility Wind Dir Wind Speed Gust Speed Precip Events Conditions
12:15 AM 66.2 °F 66.2 °F 100% 30.15 in 10.0 mi Calm Calm - N/A   Overcast
12:20 AM 64.4 °F 64.4 °F 100% 30.15 in 10.0 mi WNW 3.5 mph - N/A   Overcast
12:35 AM 64.4 °F 64.4 °F 100% 30.15 in 10.0 mi Calm Calm - N/A   Overcast
12:55 AM 64.4 °F 64.4 °F 100% 30.15 in 10.0 mi NE 5.8 mph - N/A   Overcast
1:00 AM 64.4 °F 64.4 °F 100% 30.15 in 10.0 mi NE 4.6 mph - N/A   Overcast
1:15 AM 62.6 °F 62.6 °F 100% 30.15 in 10.0 mi NE 6.9 mph - N/A   Mostly Cloudy
1:35 AM 62.6 °F 62.6 °F 100% 30.15 in 10.0 mi ENE 6.9 mph - N/A   Overcast
1:55 AM 62.6 °F 62.6 °F 100% 30.15 in 10.0 mi ENE 8.1 mph - N/A   Overcast
2:00 AM 62.6 °F 62.6 °F 100% 30.14 in 10.0 mi East 10.4 mph - N/A   Overcast
2:15 AM 62.6 °F 62.6 °F 100% 30.15 in 10.0 mi ENE 6.9 mph - N/A   Mostly Cloudy
2:35 AM 62.6 °F 62.6 °F 100% 30.15 in 10.0 mi East 8.1 mph - N/A   Mostly Cloudy
2:40 AM 62.6 °F 62.6 °F 100% 30.15 in 10.0 mi East 10.4 mph - N/A   Mostly Cloudy
2:55 AM 60.8 °F 60.8 °F 100% 30.15 in 10.0 mi ENE 9.2 mph - N/A Rain Light Rain
3:00 AM 60.8 °F 60.8 °F 100% 30.15 in 10.0 mi ENE 9.2 mph - N/A Rain Light Rain
3:15 AM 60.8 °F 60.8 °F 100% 30.14 in 10.0 mi ENE 11.5 mph - N/A   Mostly Cloudy
3:20 AM 60.8 °F 60.8 °F 100% 30.14 in 10.0 mi ENE 11.5 mph - N/A   Mostly Cloudy
3:35 AM 60.8 °F 60.8 °F 100% 30.13 in 10.0 mi East 12.7 mph - N/A   Overcast
3:55 AM 59.0 °F 59.0 °F 100% 30.14 in 10.0 mi East 5.8 mph - N/A   Mostly Cloudy
4:00 AM 59.0 °F 59.0 °F 100% 30.14 in 10.0 mi SSE 4.6 mph - N/A   Mostly Cloudy
4:15 AM 59.0 °F 59.0 °F 100% 30.13 in 10.0 mi ENE 5.8 mph - N/A   Overcast
4:35 AM 59.0 °F 59.0 °F 100% 30.14 in 10.0 mi SE 5.8 mph - N/A   Overcast
4:40 AM 59.0 °F 59.0 °F 100% 30.14 in 10.0 mi SE 6.9 mph - N/A   Mostly Cloudy
4:55 AM 59.0 °F 59.0 °F 100% 30.13 in 10.0 mi ESE 5.8 mph - N/A   Overcast
5:15 AM 59.0 °F 59.0 °F 100% 30.12 in 10.0 mi East 6.9 mph - N/A Rain Light Rain
5:35 AM 59.0 °F 59.0 °F 100% 30.12 in 10.0 mi ESE 5.8 mph - N/A Rain Light Rain
5:40 AM 59.0 °F 59.0 °F 100% 30.12 in 10.0 mi ESE 8.1 mph - N/A Rain Light Rain
5:55 AM 57.2 °F 57.2 °F 100% 30.11 in 10.0 mi ESE 6.9 mph - N/A   Overcast
6:00 AM 57.2 °F 57.2 °F 100% 30.10 in 10.0 mi ESE 8.1 mph - N/A   Overcast
6:15 AM 57.2 °F 57.2 °F 100% 30.09 in 10.0 mi East 8.1 mph - N/A   Overcast
6:35 AM 57.2 °F 57.2 °F 100% 30.10 in 10.0 mi East 6.9 mph - N/A   Overcast
6:40 AM 57.2 °F 57.2 °F 100% 30.10 in 10.0 mi East 8.1 mph - N/A   Overcast
6:55 AM 59.0 °F 59.0 °F 100% 30.10 in 10.0 mi East 5.8 mph - N/A   Mostly Cloudy
7:00 AM 59.0 °F 59.0 °F 100% 30.11 in 10.0 mi East 6.9 mph - N/A Rain Light Rain
7:15 AM 59.0 °F 59.0 °F 100% 30.12 in 10.0 mi SE 4.6 mph - N/A   Overcast
7:20 AM 57.2 °F 57.2 °F 100% 30.12 in 10.0 mi SE 4.6 mph - N/A   Overcast
7:35 AM 57.2 °F 57.2 °F 100% 30.12 in 10.0 mi East 5.8 mph - N/A Rain Light Rain
7:55 AM 57.2 °F 57.2 °F 100% 30.13 in 10.0 mi Calm Calm - N/A   Mostly Cloudy
8:15 AM 57.2 °F 57.2 °F 100% 30.13 in 10.0 mi East 4.6 mph - N/A   Scattered Clouds
8:20 AM 57.2 °F 57.2 °F 100% 30.13 in 10.0 mi Calm Calm - N/A   Scattered Clouds
8:35 AM 59.0 °F 59.0 °F 100% 30.13 in 10.0 mi ESE 4.6 mph - N/A   Scattered Clouds
8:40 AM 59.0 °F 59.0 °F 100% 30.12 in 10.0 mi East 5.8 mph - N/A Rain Light Rain
8:55 AM 57.2 °F 57.2 °F 100% 30.12 in 10.0 mi ESE 6.9 mph - N/A Rain Light Rain
9:00 AM 57.2 °F 57.2 °F 100% 30.11 in 10.0 mi ESE 6.9 mph - N/A   Partly Cloudy
9:15 AM 57.2 °F 57.2 °F 100% 30.10 in 10.0 mi East 11.5 mph - N/A   Mostly Cloudy
9:35 AM 57.2 °F 57.2 °F 100% 30.10 in 10.0 mi East 9.2 mph - N/A   Overcast
9:40 AM 57.2 °F 57.2 °F 100% 30.10 in 10.0 mi ESE 9.2 mph - N/A   Overcast
9:55 AM 57.2 °F 57.2 °F 100% 30.10 in 10.0 mi ESE 9.2 mph - N/A   Overcast
10:00 AM 57.2 °F 57.2 °F 100% 30.10 in 10.0 mi ESE 9.2 mph - N/A   Overcast
10:15 AM 57.2 °F 57.2 °F 100% 30.10 in 10.0 mi East 8.1 mph - N/A   Overcast
10:20 AM 57.2 °F 57.2 °F 100% 30.09 in 10.0 mi East 9.2 mph - N/A   Overcast
10:35 AM 59.0 °F 59.0 °F 100% 30.10 in 10.0 mi East 8.1 mph - N/A   Overcast
10:55 AM 59.0 °F 59.0 °F 100% 30.10 in 10.0 mi ESE 10.4 mph - N/A   Mostly Cloudy
11:00 AM 59.0 °F 59.0 °F 100% 30.10 in 10.0 mi ESE 10.4 mph - N/A   Mostly Cloudy
11:15 AM 57.2 °F 57.2 °F 100% 30.09 in 10.0 mi ESE 12.7 mph - N/A Rain Light Rain
11:20 AM 57.2 °F 57.2 °F 100% 30.09 in 10.0 mi ESE 10.4 mph - N/A Rain Light Rain
11:35 AM 59.0 °F 59.0 °F 100% 30.09 in 10.0 mi East 11.5 mph - N/A   Mostly Cloudy
11:40 AM 59.0 °F 59.0 °F 100% 30.09 in 10.0 mi East 10.4 mph - N/A   Scattered Clouds
11:55 AM 59.0 °F 59.0 °F 100% 30.09 in 10.0 mi ESE 11.5 mph - N/A Rain Light Rain
12:00 PM 59.0 °F 59.0 °F 100% 30.08 in 10.0 mi ESE 12.7 mph - N/A   Partly Cloudy
12:15 PM 59.0 °F 59.0 °F 100% 30.08 in 10.0 mi East 10.4 mph - N/A   Mostly Cloudy
12:20 PM 59.0 °F 59.0 °F 100% 30.08 in 10.0 mi ESE 10.4 mph - N/A   Mostly Cloudy
12:35 PM 59.0 °F 59.0 °F 100% 30.08 in 10.0 mi ESE 13.8 mph 19.6 mph N/A   Overcast
12:55 PM 59.0 °F 59.0 °F 100% 30.07 in 10.0 mi East 13.8 mph 18.4 mph N/A Rain Light Rain
1:00 PM 59.0 °F 59.0 °F 100% 30.07 in 10.0 mi East 12.7 mph - N/A Rain Light Rain
1:15 PM 59.0 °F 59.0 °F 100% 30.07 in 10.0 mi ESE 10.4 mph - N/A Rain Light Rain
1:20 PM 59.0 °F 59.0 °F 100% 30.07 in 10.0 mi East 12.7 mph 17.3 mph N/A   Mostly Cloudy
1:35 PM 59.0 °F 59.0 °F 100% 30.05 in 10.0 mi ESE 12.7 mph 18.4 mph N/A   Overcast
1:55 PM 59.0 °F 59.0 °F 100% 30.05 in 10.0 mi ESE 13.8 mph 18.4 mph N/A   Overcast
2:15 PM 59.0 °F 59.0 °F 100% 30.05 in 10.0 mi East 12.7 mph - N/A   Overcast
2:35 PM 59.0 °F 59.0 °F 100% 30.05 in 10.0 mi East 17.3 mph 20.7 mph N/A   Overcast
2:55 PM 60.8 °F 60.8 °F 100% 30.03 in 10.0 mi East 17.3 mph 21.9 mph N/A   Overcast
3:00 PM 60.8 °F 60.8 °F 100% 30.03 in 10.0 mi East 13.8 mph 21.9 mph N/A   Overcast
3:15 PM 60.8 °F 60.8 °F 100% 30.03 in 10.0 mi East 19.6 mph 23.0 mph N/A   Overcast
3:20 PM 60.8 °F 60.8 °F 100% 30.03 in 10.0 mi East 16.1 mph 23.0 mph N/A   Overcast
3:35 PM 60.8 °F 60.8 °F 100% 30.02 in 10.0 mi East 19.6 mph 24.2 mph N/A   Overcast
3:55 PM 60.8 °F 60.8 °F 100% 30.02 in 10.0 mi ESE 15.0 mph 23.0 mph N/A   Overcast
4:15 PM 60.8 °F 60.8 °F 100% 30.02 in 10.0 mi East 16.1 mph - N/A   Overcast
4:35 PM 60.8 °F 60.8 °F 100% 30.02 in 10.0 mi East 17.3 mph 23.0 mph N/A   Overcast
4:55 PM 62.6 °F 62.6 °F 100% 30.01 in 10.0 mi East 18.4 mph 23.0 mph N/A   Overcast
5:15 PM 59.0 °F 59.0 °F 100% 30.01 in 10.0 mi East 19.6 mph 25.3 mph N/A   Overcast
5:20 PM 59.0 °F 59.0 °F 100% 30.01 in 10.0 mi East 16.1 mph 25.3 mph N/A   Overcast
5:35 PM 59.0 °F 59.0 °F 100% 30.01 in 10.0 mi East 18.4 mph 24.2 mph N/A   Overcast
5:40 PM 59.0 °F 59.0 °F 100% 30.01 in 10.0 mi East 18.4 mph 24.2 mph N/A   Overcast
5:55 PM 59.0 °F 59.0 °F 100% 30.00 in 10.0 mi East 18.4 mph 25.3 mph N/A   Overcast
6:15 PM 59.0 °F 59.0 °F 100% 30.00 in 10.0 mi East 17.3 mph 25.3 mph N/A   Overcast
6:35 PM 59.0 °F 59.0 °F 100% 30.00 in 10.0 mi East 16.1 mph 27.6 mph N/A   Overcast
6:40 PM 57.2 °F 57.2 °F 100% 30.01 in 10.0 mi East 12.7 mph 20.7 mph N/A   Overcast
6:55 PM 57.2 °F 57.2 °F 100% 30.01 in 10.0 mi East 15.0 mph 20.7 mph N/A   Overcast
7:00 PM 57.2 °F 57.2 °F 100% 30.01 in 10.0 mi East 11.5 mph 20.7 mph N/A   Overcast
7:15 PM 57.2 °F 57.2 °F 100% 30.01 in 10.0 mi East 13.8 mph 19.6 mph N/A   Overcast
7:35 PM 57.2 °F 57.2 °F 100% 30.01 in 10.0 mi East 17.3 mph 23.0 mph N/A   Overcast
7:55 PM 57.2 °F 57.2 °F 100% 30.02 in 10.0 mi East 13.8 mph 23.0 mph N/A Rain Light Rain
8:00 PM 57.2 °F 57.2 °F 100% 30.02 in 10.0 mi East 18.4 mph 21.9 mph N/A   Overcast
8:15 PM 55.4 °F 55.4 °F 100% 30.02 in 10.0 mi East 12.7 mph 19.6 mph 0.04 in Rain Light Rain
8:35 PM 55.4 °F 55.4 °F 100% 30.02 in 10.0 mi East 13.8 mph 19.6 mph 0.04 in   Overcast
8:40 PM 55.4 °F 55.4 °F 100% 30.02 in 10.0 mi East 12.7 mph 18.4 mph 0.04 in   Overcast
8:55 PM 55.4 °F 55.4 °F 100% 30.02 in 10.0 mi East 15.0 mph - 0.04 in   Overcast
9:15 PM 55.4 °F 55.4 °F 100% 30.03 in 10.0 mi East 13.8 mph 23.0 mph N/A   Overcast
9:20 PM 55.4 °F 55.4 °F 100% 30.03 in 10.0 mi East 11.5 mph 23.0 mph N/A   Overcast
9:35 PM 55.4 °F 55.4 °F 100% 30.03 in 10.0 mi East 11.5 mph 19.6 mph N/A   Overcast
9:55 PM 55.4 °F 55.4 °F 100% 30.03 in 10.0 mi East 10.4 mph - N/A   Overcast
10:15 PM 55.4 °F 55.4 °F 100% 30.03 in 10.0 mi ESE 9.2 mph - N/A   Overcast
10:20 PM 55.4 °F 55.4 °F 100% 30.03 in 10.0 mi ESE 10.4 mph - N/A   Overcast
10:35 PM 55.4 °F 55.4 °F 100% 30.02 in 10.0 mi East 11.5 mph - N/A   Overcast
10:40 PM 55.4 °F 55.4 °F 100% 30.02 in 10.0 mi East 10.4 mph - N/A   Overcast
10:55 PM 55.4 °F 55.4 °F 100% 30.02 in 10.0 mi East 13.8 mph - N/A   Overcast
11:00 PM 55.4 °F 55.4 °F 100% 30.02 in 10.0 mi East 11.5 mph - N/A   Overcast
11:15 PM 55.4 °F 55.4 °F 100% 30.02 in 10.0 mi East 9.2 mph - N/A   Overcast
11:35 PM 55.4 °F 55.4 °F 100% 30.02 in 10.0 mi East 13.8 mph - N/A   Overcast
11:55 PM 55.4 °F 55.4 °F 100% 30.01 in 10.0 mi East 13.8 mph - N/A   Overcast